Sexton Summit, OR

10:06 AM PDT on March 23, 2017 (GMT -0700)
Sexton Summit

Weather History for KSXT - February, 2013

Change the Weather History Date:

Monday, February 4, 2013

  Actual Average Record
Temperature  
Mean Temperature 46 °F -  
Max Temperature 50 °F 39 °F 48 °F (2015)
Min Temperature 39 °F 30 °F 24 °F (2014)
Degree Days  
Heating Degree Days 20    
Moisture  
Dew Point 25 °F    
Average Humidity 49    
Maximum Humidity 62    
Minimum Humidity 33    
Precipitation  
Precipitation 0.00 in - - ()
Sea Level Pressure  
Sea Level Pressure 30.06 in    
Wind  
Wind Speed 9 mph (South)    
Max Wind Speed 18 mph    
Max Gust Speed 28 mph    
Visibility 10 miles    
Events      
Averages and records for this station are not official NWS values.
T = Trace of Precipitation, MM = Missing Value Source: NWS Daily Summary

Daily Weather History Graph

Daily Weather History Graph

Search for Another Location

Airport or City:

Trip Planner

Search our weather history database for the weather conditions in past years. The results will help you decide how hot, cold, wet, or windy it might be!

Date:

Astronomy

Feb. 04, 2013 Rise Set
Actual Time 7:23 AM PST 5:31 PM PST
Civil Twilight 6:54 AM PST 6:01 PM PST
Nautical Twilight 6:20 AM PST 6:34 PM PST
Astronomical Twilight 5:47 AM PST 7:07 PM PST
Moon 2:07 AM PST (2/4) 11:57 AM PST (2/4)
Length of Visible Light 11h 06m
Length of Day
10h 07m
Last Quarter, 36% of the Moon is Illuminated
Feb 4
Last Quarter
Feb 9
New
Feb 17
First Quarter
Feb 25
Full
Mar 4
Last Quarter

Hourly Weather History & Observations

Time (PST) Temp. Windchill Dew Point Humidity Pressure Visibility Wind Dir Wind Speed Gust Speed Precip Events Conditions
12:56 AM 41.0 °F 35.8 °F 26.1 °F 55% 30.15 in 10.0 mi SSE 8.1 mph - N/A   Clear
2:56 AM 42.1 °F 37.1 °F 25.0 °F 51% 30.13 in 10.0 mi South 8.1 mph - N/A   Clear
3:56 AM 42.1 °F 37.7 °F 26.1 °F 53% 30.12 in 10.0 mi SSE 6.9 mph - N/A   Mostly Cloudy
4:56 AM 41.0 °F 35.8 °F 25.0 °F 53% 30.12 in 10.0 mi SSE 8.1 mph - N/A   Clear
5:56 AM 43.0 °F 39.5 °F 25.0 °F 49% 30.12 in 10.0 mi South 5.8 mph - N/A   Clear
6:56 AM 41.0 °F 36.4 °F 26.1 °F 55% 30.12 in 10.0 mi SE 6.9 mph - N/A   Clear
7:56 AM 41.0 °F 34.7 °F 26.1 °F 55% 30.12 in 10.0 mi SE 10.4 mph - N/A   Clear
8:56 AM 43.0 °F 38.2 °F 23.0 °F 45% 30.12 in 10.0 mi SE 8.1 mph - N/A   Clear
9:56 AM 45.0 °F 40.1 °F 25.0 °F 46% 30.11 in 10.0 mi SSE 9.2 mph - N/A   Clear
10:56 AM 46.9 °F - 25.0 °F 42% 30.10 in 10.0 mi South 6.9 mph - N/A   Clear
11:56 AM 50.0 °F - 21.9 °F 33% 30.07 in 10.0 mi South 8.1 mph - N/A   Clear
12:56 PM 50.0 °F - 21.9 °F 33% 30.04 in 10.0 mi South 5.8 mph - N/A   Clear
1:56 PM 48.0 °F - 21.0 °F 34% 30.04 in 10.0 mi SSW 5.8 mph - N/A   Clear
2:56 PM 46.9 °F - 23.0 °F 39% 30.02 in 10.0 mi SSW 8.1 mph - N/A   Clear
3:56 PM 45.0 °F 41.2 °F 24.1 °F 44% 30.02 in 10.0 mi South 6.9 mph - N/A   Clear
4:56 PM 44.1 °F 39.5 °F 26.1 °F 49% 30.01 in 10.0 mi SSW 8.1 mph 16.1 mph N/A   Clear
5:56 PM 44.1 °F 38.1 °F 27.0 °F 51% 30.01 in 10.0 mi SSW 11.5 mph - N/A   Clear
6:56 PM 42.1 °F 35.2 °F 28.0 °F 58% 30.01 in 10.0 mi South 12.7 mph - N/A   Clear
7:56 PM 42.1 °F 34.5 °F 27.0 °F 55% 29.99 in 10.0 mi South 15.0 mph 23.0 mph N/A   Clear
8:56 PM 41.0 °F 33.5 °F 28.9 °F 62% 29.99 in 10.0 mi SSW 13.8 mph - N/A   Clear
9:56 PM 43.0 °F 34.8 °F 26.1 °F 51% 29.95 in 10.0 mi South 18.4 mph 27.6 mph N/A   Clear
10:56 PM 42.1 °F 34.5 °F 25.0 °F 51% 29.96 in 10.0 mi SSW 15.0 mph 23.0 mph N/A   Partly Cloudy
11:56 PM 39.0 °F 31.0 °F 27.0 °F 62% 29.95 in 10.0 mi SSW 13.8 mph 23.0 mph N/A   Clear